CW9197 Juva FI current weather conditions

sailwx.info

Wind from 016 at 0 knots gusting 2

Air temperature -3.9° C
Dewpoint -3.9° C

Last reported at 2017-Oct-23 02:10 UTC.
Time now 2017-Oct-23 03:03 UTC

Location: N 61°53' E 027°53'.
View on Google Maps.

See reports from other nearby stations

  
Tides and Currents Weather Stations Pressure Air Temp Water Temp Dewpoint Dewpoint Depression Visibility Wind Speed Wind Dir Waves Ship Positions
date/time (UTC)wind fromknots sea level pressurealtimeterstation pressurevisibilityair tempwater tempwave heightnotes
2017-Oct-23 02:10 016 0 gusting 2 -3.9
2017-Oct-23 02:00 023 0 gusting 3 -3.9
2017-Oct-23 01:50 016 1 gusting 3 -3.3
2017-Oct-23 01:40 007 0 gusting 2 -3.3
2017-Oct-23 01:30 008 0 gusting 2 -3.3
2017-Oct-23 01:20 006 1 gusting 3 -3.3
2017-Oct-23 01:10 350 1 gusting 3 -3.3
2017-Oct-23 01:00 004 0 gusting 2 -3.3
2017-Oct-23 00:50 008 0 gusting 4 -3.3
2017-Oct-23 00:40 008 0 gusting 2 -3.3
2017-Oct-23 00:30 010 0 gusting 2 -3.3
2017-Oct-23 00:20 003 0 gusting 3 -3.3
2017-Oct-23 00:10 013 0 gusting 2 -3.3
2017-Oct-23 00:00 003 0 gusting 6 -3.3
2017-Oct-22 23:50 006 0 gusting 3 -2.8
2017-Oct-22 23:40 008 0 gusting 2 -2.8
2017-Oct-22 23:30 018 0 gusting 5 -2.8
2017-Oct-22 23:20 019 0 gusting 2 -2.8
2017-Oct-22 23:10 018 0 gusting 1 -2.8
2017-Oct-22 23:00 023 0 gusting 3 -2.8
2017-Oct-22 22:50 035 -2.8
2017-Oct-22 22:40 353 -2.8
2017-Oct-22 22:30 011 0 gusting 1 -2.8
2017-Oct-22 22:20 021 0 gusting 1 -2.8
2017-Oct-22 22:10 010 0 gusting 3 -2.8
2017-Oct-22 22:00 007 0 gusting 2 -2.2
2017-Oct-22 21:50 011 0 gusting 4 -2.2
2017-Oct-22 21:40 008 0 gusting 2 -2.2
2017-Oct-22 21:30 012 0 gusting 3 -2.2
2017-Oct-22 21:20 006 -2.2
2017-Oct-22 21:10 014 0 gusting 2 -2.2
2017-Oct-22 21:00 006 0 gusting 5 -2.2
2017-Oct-22 20:50 004 -2.2
2017-Oct-22 20:40 007 -2.2
2017-Oct-22 20:30 015 1 gusting 2 -2.2
2017-Oct-22 20:20 021 0 gusting 1 -1.7
2017-Oct-22 20:10 017 0 gusting 2 -1.7
2017-Oct-22 20:00 048 -1.7
2017-Oct-22 19:50 023 0 gusting 6 -1.7
2017-Oct-22 19:40 031 0 gusting 2 -1.1
2017-Oct-22 19:30 033 0 gusting 1 -1.1
2017-Oct-22 19:20 042 0 gusting 2 -1.1
2017-Oct-22 19:10 046 1 gusting 3 -1.1
2017-Oct-22 19:00 033 0 gusting 2 -0.6
2017-Oct-22 18:50 029 0 gusting 4 -0.6
2017-Oct-22 18:40 016 0 gusting 3 -0.6
2017-Oct-22 18:30 045 1 gusting 3 -0.0
2017-Oct-22 18:20 035 1 gusting 4 -0.0
2017-Oct-22 18:10 021 0 gusting 3 -0.0
2017-Oct-22 18:00 016 0 gusting 3 -0.0
2017-Oct-22 17:50 016 0 gusting 1 -0.0
2017-Oct-22 17:40 016 0 gusting 2 -0.0
2017-Oct-22 17:30 056 0 gusting 3 -0.0
2017-Oct-22 17:20 053 0 gusting 2 0.6
2017-Oct-22 17:10 040 0.6
2017-Oct-22 17:00 047 0 gusting 1 0.6
2017-Oct-22 16:50 037 0 gusting 1 0.6
2017-Oct-22 16:40 034 1 gusting 4 0.6
2017-Oct-22 16:30 043 1 gusting 5 1.1
2017-Oct-22 16:20 045 2 gusting 7 1.1
2017-Oct-22 16:10 061 1 gusting 3 1.1
2017-Oct-22 16:00 020 1.1
2017-Oct-22 15:50 016 0 gusting 2 1.1
2017-Oct-22 15:40 357 1.1
2017-Oct-22 15:30 329 0 gusting 3 1.1
2017-Oct-22 15:20 337 1.7
2017-Oct-22 15:10 317 0 gusting 2 1.7
2017-Oct-22 15:00 308 1.7
2017-Oct-22 14:50 291 0 gusting 1 1.7
2017-Oct-22 14:40 314 1.7
2017-Oct-22 14:30 307 1.7
2017-Oct-22 14:20 338 2.2
2017-Oct-22 14:10 317 2.2
2017-Oct-22 14:00 307 0 gusting 3 2.2
2017-Oct-22 13:50 322 2.2
2017-Oct-22 13:40 341 0 gusting 2 2.2
2017-Oct-22 13:30 332 0 gusting 2 2.2
2017-Oct-22 13:20 349 2.2
2017-Oct-22 13:10 349 0 gusting 3 2.2
2017-Oct-22 13:00 341 0 gusting 2 2.2
2017-Oct-22 12:50 002 2.8
2017-Oct-22 12:40 320 0 gusting 2 2.8
2017-Oct-22 12:30 333 1 gusting 5 2.8
2017-Oct-22 12:20 327 1 gusting 6 2.8
2017-Oct-22 12:10 346 1 gusting 6 2.8
2017-Oct-22 12:00 334 2 gusting 8 2.8
2017-Oct-22 11:50 325 0 gusting 4 2.8
2017-Oct-22 11:40 332 2 gusting 6 2.8
2017-Oct-22 11:30 353 1 gusting 4 2.8
2017-Oct-22 11:20 314 1 gusting 5 2.8
2017-Oct-22 11:10 323 1 gusting 5 2.8
2017-Oct-22 11:00 317 1 gusting 5 2.8
2017-Oct-22 10:50 325 1 gusting 4 2.8
2017-Oct-22 10:40 317 0 gusting 4 2.8
2017-Oct-22 10:30 340 0 gusting 5 2.8
2017-Oct-22 10:20 332 0 gusting 3 2.8
2017-Oct-22 10:10 330 3 gusting 9 2.8
2017-Oct-22 10:00 330 3 gusting 9 2.8
2017-Oct-22 09:50 342 3 gusting 10 2.8
2017-Oct-22 09:40 326 2 gusting 6 2.2
2017-Oct-22 09:30 330 2 gusting 6 2.2
2017-Oct-22 09:20 340 1 gusting 8 2.2
2017-Oct-22 09:10 343 1 gusting 6 2.2
2017-Oct-22 09:00 343 1 gusting 4 2.2
2017-Oct-22 08:50 353 0 gusting 1 1.7
2017-Oct-22 08:40 342 2 gusting 7 1.7
2017-Oct-22 08:30 323 1.7
2017-Oct-22 08:20 343 2 gusting 6 1.7
2017-Oct-22 08:10 341 1 gusting 5 1.1
2017-Oct-22 08:00 334 1 gusting 7 1.1
2017-Oct-22 07:50 341 0 gusting 5 1.1
2017-Oct-22 07:40 321 2 gusting 8 0.6
2017-Oct-22 07:30 305 1 gusting 4 0.6
2017-Oct-22 07:20 301 1 gusting 4 0.6
2017-Oct-22 07:10 319 0 gusting 4 0.6
2017-Oct-22 07:00 327 0 gusting 5 0.6
2017-Oct-22 06:50 333 0 gusting 2 0.6
2017-Oct-22 06:40 326 1 gusting 5 0.6
2017-Oct-22 06:30 299 0 gusting 2 0.6
2017-Oct-22 06:20 291 0 gusting 4 -0.0
2017-Oct-22 06:10 288 0 gusting 6 -0.0
2017-Oct-22 06:00 293 2 gusting 6 -0.0
2017-Oct-22 05:50 314 0 gusting 5 -0.0
2017-Oct-22 05:40 313 1 gusting 5 -0.0
2017-Oct-22 05:30 312 0 gusting 3 -0.0
2017-Oct-22 05:20 304 1 gusting 5 -0.0
2017-Oct-22 05:10 322 1 gusting 4 -0.0
2017-Oct-22 05:00 296 1 gusting 4 -0.0
2017-Oct-22 04:50 304 2 gusting 9 -0.0
2017-Oct-22 04:40 303 1 gusting 5 -0.0
2017-Oct-22 04:30 294 3 gusting 7 -0.0
2017-Oct-22 04:20 288 0 gusting 3 -0.0
2017-Oct-22 04:10 282 2 gusting 9 -0.0
2017-Oct-22 04:00 294 2 gusting 6 -0.0
2017-Oct-22 03:50 294 2 gusting 6 -0.0
2017-Oct-22 03:40 293 1 gusting 6 -0.0
2017-Oct-22 03:30 304 1 gusting 6 -0.0
2017-Oct-22 03:20 316 1 gusting 5 -0.0
2017-Oct-22 03:10 288 2 gusting 6 -0.0
2017-Oct-22 03:00 275 1 gusting 5 -0.0
2017-Oct-22 02:50 287 1 gusting 6 -0.0
2017-Oct-22 02:40 286 2 gusting 5 -0.0
2017-Oct-22 02:30 284 2 gusting 6 -0.0
2017-Oct-22 02:20 287 2 gusting 6 -0.0
2017-Oct-22 02:10 287 1 gusting 6 -0.0
2017-Oct-22 02:00 285 1 gusting 6 -0.0
2017-Oct-22 01:50 277 0 gusting 4 -0.6
2017-Oct-22 01:40 278 1 gusting 5 -0.6
2017-Oct-22 01:30 299 0 gusting 5 -0.6
2017-Oct-22 01:20 272 -0.6
2017-Oct-22 01:10 287 0 gusting 2 -0.6
2017-Oct-22 01:00 327 0 gusting 3 -0.6
2017-Oct-22 00:50 287 1 gusting 7 -0.6
2017-Oct-22 00:40 279 1 gusting 6 -0.6
2017-Oct-22 00:30 279 2 gusting 8 -0.6
2017-Oct-22 00:20 263 1 gusting 5 -0.6
2017-Oct-22 00:10 282 0 gusting 3 -0.6
2017-Oct-22 00:00 284 1 gusting 6 -0.6
2017-Oct-21 23:50 289 1 gusting 6 -0.6
2017-Oct-21 23:40 272 1 gusting 6 -0.6
2017-Oct-21 23:30 268 1 gusting 5 -0.6
2017-Oct-21 23:20 245 1 gusting 3 -0.6
2017-Oct-21 23:10 264 1 gusting 7 -0.6
2017-Oct-21 23:00 249 1 gusting 7 -0.6
2017-Oct-21 22:50 268 1 gusting 4 -0.6
2017-Oct-21 22:40 268 1 gusting 7 -0.6
2017-Oct-21 22:30 314 1 gusting 6 -0.6
2017-Oct-21 22:20 289 0 gusting 3 -0.6
2017-Oct-21 22:10 311 2 gusting 8 -0.6
2017-Oct-21 22:00 305 1 gusting 5 -0.6
2017-Oct-21 21:50 300 1 gusting 8 -0.6
2017-Oct-21 21:40 292 1 gusting 7 -0.6
2017-Oct-21 21:30 289 3 gusting 9 -0.6
2017-Oct-21 21:20 312 1 gusting 4 -0.6
2017-Oct-21 21:10 290 3 gusting 10 -0.6
2017-Oct-21 21:00 291 2 gusting 9 -0.6
2017-Oct-21 20:50 291 3 gusting 8 -0.6
2017-Oct-21 20:40 298 2 gusting 8 -0.6
2017-Oct-21 20:30 290 1 gusting 6 -0.6
2017-Oct-21 20:20 303 2 gusting 5 -0.6
2017-Oct-21 20:10 306 1 gusting 6 -0.6
2017-Oct-21 20:00 302 2 gusting 10 -0.6
2017-Oct-21 19:50 297 1 gusting 3 -0.6
2017-Oct-21 19:40 283 1 gusting 5 -0.6
2017-Oct-21 19:30 287 1 gusting 5 -0.6
2017-Oct-21 19:20 280 2 gusting 6 -1.1
2017-Oct-21 19:10 284 1 gusting 4 -1.1
2017-Oct-21 19:00 287 2 gusting 6 -1.1
2017-Oct-21 18:50 313 1 gusting 4 -1.1
2017-Oct-21 18:40 277 2 gusting 6 -1.1
2017-Oct-21 18:30 297 2 gusting 6 -0.6
2017-Oct-21 18:20 304 0 gusting 3 -0.6
2017-Oct-21 18:10 285 2 gusting 6 -0.6
2017-Oct-21 18:00 304 0 gusting 3 -0.0
2017-Oct-21 17:50 325 2 gusting 7 -0.0
2017-Oct-21 17:40 324 2 gusting 6 -0.0
2017-Oct-21 17:30 327 2 gusting 7 -0.0
2017-Oct-21 17:20 305 1 gusting 6 -0.0
2017-Oct-21 17:10 294 1 gusting 6 -0.0
2017-Oct-21 17:00 303 0 gusting 3 -0.0
2017-Oct-21 16:50 297 0 gusting 4 -0.0
2017-Oct-21 16:40 299 0 gusting 3 -0.0
2017-Oct-21 16:30 317 0 gusting 2 -0.0
2017-Oct-21 16:20 279 1 gusting 6 0.6
2017-Oct-21 16:10 319 1 gusting 6 0.6
2017-Oct-21 16:00 290 2 gusting 10 0.6
2017-Oct-21 15:50 293 0 gusting 5 0.6
2017-Oct-21 15:40 306 1 gusting 5 0.6
2017-Oct-21 15:30 301 1 gusting 5 0.6
2017-Oct-21 15:20 342 0 gusting 3 0.6
2017-Oct-21 15:10 335 0 gusting 2 0.6
2017-Oct-21 15:00 281 0 gusting 6 0.6
2017-Oct-21 14:50 276 0 gusting 4 0.6
2017-Oct-21 14:40 290 0 gusting 4 0.6
2017-Oct-21 14:30 285 0 gusting 3 -0.0
2017-Oct-21 14:20 276 -0.0
2017-Oct-21 14:10 285 0 gusting 2 -0.0
2017-Oct-21 14:00 269 0 gusting 2 -0.0
2017-Oct-21 13:50 295 0 gusting 2 -0.0
2017-Oct-21 13:40 345 2 gusting 6 -0.0
2017-Oct-21 13:30 325 4 gusting 8 0.6
2017-Oct-21 13:20 334 2 gusting 6 0.6
2017-Oct-21 13:10 269 1 gusting 6 1.1
2017-Oct-21 13:00 321 1 gusting 5 1.1
2017-Oct-21 12:50 317 0 gusting 5 1.1
2017-Oct-21 12:40 267 1 gusting 5 1.1
2017-Oct-21 12:30 335 2 gusting 7 1.1
2017-Oct-21 12:20 294 2 gusting 6 1.1
2017-Oct-21 12:10 289 1 gusting 4 1.1
2017-Oct-21 12:00 290 1 gusting 6 1.1
2017-Oct-21 11:50 320 1 gusting 4 1.1
2017-Oct-21 11:40 336 1 gusting 3 1.1
2017-Oct-21 11:30 334 1 gusting 5 1.7
2017-Oct-21 11:20 308 2 gusting 7 1.7
2017-Oct-21 11:10 330 3 gusting 8 1.7
2017-Oct-21 11:00 265 0 gusting 3 1.7
2017-Oct-21 10:50 250 1 gusting 4 1.7
2017-Oct-21 10:40 282 1 gusting 5 1.7
2017-Oct-21 10:30 257 1 gusting 3 1.7
2017-Oct-21 10:20 271 1 gusting 6 1.7
2017-Oct-21 10:10 306 0 gusting 3 2.2
2017-Oct-21 10:00 267 0 gusting 1 2.2
2017-Oct-21 09:50 257 0 gusting 2 1.7
2017-Oct-21 09:40 305 0 gusting 2 1.7
2017-Oct-21 09:30 007 1.7
2017-Oct-21 09:20 007 1.1
2017-Oct-21 09:10 047 1.1
2017-Oct-21 09:00 343 0 gusting 1 1.1
2017-Oct-21 08:50 321 1.1
2017-Oct-21 08:40 001 0 gusting 2 1.1
2017-Oct-21 08:30 046 1 gusting 3 0.6
2017-Oct-21 08:20 022 1 gusting 3 1.1
2017-Oct-21 08:10 040 0 gusting 2 0.6
2017-Oct-21 08:00 015 0.6
2017-Oct-21 07:50 030 0.6
2017-Oct-21 07:40 344 0.6
2017-Oct-21 07:30 002 0.6
2017-Oct-21 07:20 025 0.6
2017-Oct-21 07:10 042 -0.6
2017-Oct-21 07:00 018 0 gusting 1 -0.6
2017-Oct-21 06:50 034 -1.1
2017-Oct-21 06:40 041 -1.1
2017-Oct-21 06:30 023 0 gusting 2 -1.1
2017-Oct-21 06:20 015 0 gusting 2 -1.7
2017-Oct-21 06:10 044 -1.7
2017-Oct-21 06:00 029 -1.1
2017-Oct-21 05:50 015 0 gusting 1 -1.1
2017-Oct-21 05:40 020 -1.1
2017-Oct-21 05:30 019 0 gusting 1 -1.1
2017-Oct-21 05:20 058 -1.1
2017-Oct-21 05:10 022 -1.1
2017-Oct-21 05:00 019 -0.6
2017-Oct-21 04:50 015 -0.6
2017-Oct-21 04:40 276 -0.0
2017-Oct-21 04:30 -0.0
2017-Oct-21 04:20 -0.0
2017-Oct-21 04:10 -0.0
2017-Oct-21 04:00 -0.0
2017-Oct-21 03:50 -0.0
2017-Oct-21 03:40 032 -0.0
2017-Oct-21 03:30 037 -0.0
2017-Oct-21 03:20 017 -0.0
2017-Oct-21 03:10 027 -0.0
2017-Oct-21 03:00 017 -0.0